GFSNIL_sfc_thetae_000.txt.gz
Theta_e
347 338 334 332 329 329 329 331 333 332 333 329 330 333 335 333 333 333 334 333 331 331
341 333 331 330 330 329 330 330 331 331 331 330 330 334 334 332 333 334 334 334 333 331
337 332 329 329 329 327 328 330 330 331 330 330 331 333 333 332 332 332 332 332 332 332
332 330 329 329 330 329 328 329 330 330 330 330 330 332 331 331 332 332 332 332 332 332
332 331 330 331 331 330 329 329 330 330 331 332 332 332 331 331 333 332 331 332 331 331
331 332 331 331 331 330 329 328 329 331 330 330 330 328 329 331 331 331 331 331 330 330
332 331 333 332 331 331 330 329 329 329 329 329 328 328 329 330 330 330 330 331 331 329
334 335 333 332 332 331 330 330 330 329 329 329 328 328 330 331 330 330 331 332 330 329
336 334 333 334 334 331 330 329 330 328 329 329 329 326 327 332 331 332 330 329 328 325
333 332 332 333 333 331 328 329 328 329 329 329 331 323 324 328 332 329 326 326 325 323
333 331 331 330 328 330 329 328 328 329 329 329 330 322 321 325 331 329 326 324 323 322
334 333 334 331 330 330 330 329 329 330 330 328 329 320 320 323 328 327 325 323 321 319
335 331 330 332 332 331 331 330 331 330 328 324 327 320 319 320 326 324 320 319 320 316
337 335 334 331 329 328 330 330 329 327 324 327 328 328 317 313 322 320 319 318 317 316

GFSNIL_sfc_thetae_003.txt.gz
Theta_e
362 359 359 359 353 349 349 347 346 346 347 348 345 343 344 340 340 343 341 343 343 338
363 362 360 359 354 349 351 345 345 345 346 345 340 342 344 337 339 342 342 342 343 340
360 361 361 359 351 347 348 345 344 344 343 342 340 340 343 339 340 341 338 338 342 342
359 359 360 353 352 342 344 345 344 344 342 341 341 342 342 342 340 339 340 342 341 342
358 350 349 352 340 342 340 344 344 343 342 342 341 342 342 340 336 338 338 339 340 339
353 350 352 336 341 338 338 338 340 341 341 341 342 342 343 341 339 339 339 339 339 339
350 349 341 340 335 337 336 337 337 339 342 341 342 342 340 338 339 340 339 340 340 340
351 348 343 335 334 333 334 334 334 336 340 341 339 337 338 339 339 341 340 340 342 341
348 343 341 341 335 333 333 333 336 336 336 337 336 329 328 335 339 341 341 340 340 341
345 341 342 341 340 335 330 332 334 337 335 339 338 326 325 330 338 339 340 339 338 337
344 342 341 342 340 337 333 333 338 338 339 338 339 323 322 326 337 335 337 338 338 336
343 342 341 340 340 339 337 337 337 336 338 338 338 321 320 327 334 333 331 336 336 332
343 341 339 341 341 339 339 335 336 337 339 331 337 318 318 326 328 329 328 334 330 318
344 343 343 343 341 339 338 337 337 336 338 337 336 332 315 314 330 330 329 329 328 326

GFSNIL_sfc_thetae_006.txt.gz
Theta_e
368 363 361 361 353 349 346 346 352 357 352 349 348 348 345 340 340 342 340 342 342 336
369 366 362 364 362 353 356 347 353 354 350 346 347 345 344 338 340 340 341 339 341 339
364 366 365 364 363 361 357 356 352 351 346 346 345 343 344 340 341 340 335 333 338 340
362 363 365 364 364 363 361 355 352 350 346 344 343 343 343 343 339 338 338 338 339 341
362 362 362 365 362 360 360 353 351 348 345 346 343 343 343 340 338 337 336 337 340 340
360 361 362 363 361 361 354 347 344 343 344 345 343 343 344 343 341 339 338 339 339 339
360 360 361 361 353 348 348 344 340 341 342 341 344 344 343 342 342 339 337 339 340 340
362 362 360 358 352 346 345 343 335 339 337 341 343 338 342 341 339 339 339 340 340 342
362 361 359 355 350 347 344 341 339 336 336 337 338 330 330 337 339 340 340 340 342 344
361 358 355 352 349 345 343 341 340 340 338 338 341 327 327 331 338 339 340 343 342 340
358 355 353 351 347 345 340 340 342 342 341 340 341 327 325 330 340 342 343 342 340 339
355 352 348 347 347 347 342 341 343 344 343 342 342 321 321 329 340 340 341 337 337 336
354 352 349 348 348 347 345 343 341 342 343 336 344 319 318 326 337 338 335 332 334 323
353 352 352 350 347 346 344 342 344 341 343 343 336 339 315 316 336 332 332 332 337 336

GFSNIL_sfc_thetae_009.txt.gz
Theta_e
374 360 358 363 356 350 348 350 364 357 355 352 349 349 349 342 340 346 341 342 346 337
373 371 361 366 368 356 360 350 353 355 354 352 347 349 348 340 345 343 343 344 346 340
370 373 372 374 370 365 362 362 358 357 354 350 350 350 350 345 346 344 339 336 345 345
367 369 372 370 370 370 366 365 360 359 356 350 348 348 350 347 344 344 345 345 341 343
370 369 368 370 371 371 367 366 361 358 354 350 345 341 348 344 343 339 339 340 343 341
366 368 368 370 370 371 369 365 358 358 355 348 348 348 349 348 342 342 342 342 343 342
366 367 367 370 370 370 368 366 359 356 352 350 348 348 347 347 346 346 345 344 344 344
369 369 369 369 370 369 368 364 358 355 350 348 344 342 347 344 343 344 343 343 342 344
371 371 370 370 371 367 363 360 356 349 344 341 338 331 333 341 339 346 344 341 345 346
374 371 371 369 365 361 356 357 352 347 339 339 344 328 328 332 340 342 344 346 344 341
373 370 369 365 361 356 354 353 349 344 343 344 345 328 325 331 341 342 342 346 347 347
366 365 363 359 357 354 351 350 345 342 341 344 346 323 322 330 341 339 344 346 346 344
366 362 358 358 356 354 354 349 345 342 344 339 346 321 319 328 336 337 339 342 346 327
360 360 359 356 357 354 352 348 345 342 346 349 345 343 316 316 336 338 337 338 337 336

GFSNIL_sfc_thetae_012.txt.gz
Theta_e
366 364 362 363 362 359 356 354 357 356 355 356 352 352 352 349 344 347 345 343 345 342
367 365 363 363 363 363 360 362 355 355 357 353 352 352 353 344 344 348 348 346 344 342
367 366 363 364 364 359 362 360 358 356 355 353 350 347 349 343 348 344 344 343 343 342
367 367 364 366 363 364 361 359 358 356 354 352 349 349 348 345 342 343 342 342 343 341
367 367 366 363 366 364 365 362 358 357 354 352 346 348 344 341 340 343 341 341 341 340
364 365 365 366 364 368 364 361 356 357 354 351 345 346 344 342 342 342 339 340 340 338
362 364 363 366 366 365 365 361 360 356 354 352 346 345 343 344 344 343 340 343 342 341
364 364 365 364 366 366 365 364 362 359 354 353 347 343 345 345 344 343 340 345 342 343
362 364 363 365 364 366 366 366 363 359 353 351 346 333 335 343 343 344 340 341 343 343
361 363 364 364 364 365 365 365 361 359 353 348 346 329 329 335 342 338 339 344 342 341
363 364 365 365 364 366 365 362 359 355 347 344 342 329 327 330 337 337 340 342 343 341
371 367 367 366 365 365 361 355 352 348 341 340 343 327 323 326 336 335 338 342 340 340
371 369 367 367 363 357 353 351 350 343 341 336 342 326 321 324 337 335 338 342 340 328
370 369 368 366 358 352 352 354 347 342 342 343 340 342 316 317 339 339 339 338 337 340

GFSNIL_sfc_thetae_015.txt.gz
Theta_e
356 352 350 350 351 351 351 350 350 348 344 341 338 344 341 338 335 336 333 330 330 330
355 356 354 352 351 350 348 349 349 349 345 343 340 338 340 337 334 335 334 329 330 329
357 356 355 355 351 353 348 350 348 349 346 346 341 340 341 335 337 334 335 334 332 330
359 358 356 356 353 351 351 348 348 348 348 344 342 342 340 334 334 336 331 333 330 333
360 360 357 355 354 354 350 351 350 348 347 345 342 340 340 335 335 332 334 332 331 329
358 359 359 356 356 356 356 352 350 350 346 345 343 340 340 336 332 334 334 334 333 331
358 358 359 359 356 357 357 355 348 348 348 346 344 340 340 336 334 335 335 334 335 334
358 359 359 359 359 357 356 355 353 347 348 346 343 340 337 337 336 335 334 334 337 336
357 357 357 358 358 359 356 356 353 351 348 346 346 335 335 338 337 337 335 334 338 336
354 355 356 357 357 357 357 358 356 354 350 346 347 332 330 336 338 336 336 337 337 337
354 354 356 356 357 356 358 357 357 354 348 347 342 329 328 331 334 333 334 338 338 335
352 354 355 356 356 357 357 357 354 349 343 339 338 325 324 327 331 331 331 335 336 335
351 354 356 357 356 355 356 348 348 342 340 333 336 324 321 322 330 330 328 329 335 329
358 360 359 358 354 349 348 348 343 339 338 336 336 332 318 317 331 332 331 329 329 330

GFSNIL_sfc_thetae_018.txt.gz
Theta_e
349 348 348 345 347 349 350 350 351 348 343 337 336 337 335 334 333 331 329 331 328 327
351 349 348 346 349 349 350 350 349 348 342 338 335 339 337 334 332 334 330 328 326 327
352 353 351 348 348 349 348 349 348 346 342 339 336 337 337 334 332 330 332 330 326 326
351 350 353 352 351 350 348 347 347 346 343 340 338 335 338 333 333 330 330 332 330 329
354 353 351 351 353 351 349 346 347 346 344 342 340 338 336 334 334 332 329 329 329 328
355 354 353 351 352 352 350 347 346 346 345 342 342 339 338 336 333 331 332 331 329 328
355 355 355 354 353 352 352 347 347 346 345 345 342 340 339 337 334 332 331 332 332 330
356 357 356 356 354 352 353 352 347 346 345 344 343 342 338 337 335 333 332 332 332 332
356 356 355 356 356 353 352 352 348 345 345 343 344 336 334 338 337 335 333 332 331 332
356 355 355 356 355 355 352 352 350 346 345 344 345 332 330 335 336 336 336 332 332 333
355 354 355 355 355 355 356 352 352 350 347 346 346 331 327 333 339 337 337 336 334 334
354 353 354 353 354 355 356 355 354 355 350 347 345 325 323 330 336 335 335 335 336 334
354 352 352 353 354 355 356 356 356 351 349 341 337 320 320 328 332 330 331 331 332 327
352 352 353 354 355 354 355 352 348 342 338 339 337 330 319 317 329 328 329 329 331 332

GFSNIL_sfc_thetae_024.txt.gz
Theta_e
346 345 344 344 345 347 348 350 352 350 350 347 343 341 339 336 334 336 335 333 333 332
346 346 345 345 346 347 349 351 351 351 350 348 342 341 339 336 335 335 334 334 334 332
346 347 347 346 344 345 347 350 351 351 350 347 343 340 339 336 336 335 333 333 333 332
348 348 347 346 346 346 347 349 349 351 350 347 343 340 338 337 336 335 335 335 332 331
348 348 347 347 347 348 347 349 349 350 349 347 343 341 339 337 337 335 334 334 333 332
348 347 347 347 348 348 348 348 349 349 348 346 344 340 341 340 338 337 336 335 335 333
347 347 348 348 349 348 349 348 349 349 348 346 345 342 340 340 339 338 338 337 335 334
347 348 349 349 350 350 349 349 348 348 348 347 345 344 342 340 339 338 338 337 336 336
347 347 347 348 349 350 350 350 348 347 347 346 346 336 334 340 340 339 337 335 336 338
348 348 348 349 348 347 347 349 347 347 347 346 347 330 331 335 342 340 339 337 335 334
348 348 349 350 349 349 349 347 348 347 347 346 346 329 327 333 343 341 340 339 337 337
349 348 349 349 349 350 350 349 348 349 347 346 346 326 324 330 341 339 338 338 338 338
350 349 349 350 351 352 352 350 350 349 348 342 347 322 322 329 341 339 337 338 338 328
351 351 350 351 352 353 353 352 350 350 349 349 346 341 319 320 341 341 337 337 336 336

GFSNIL_sfc_thetae_027.txt.gz
Theta_e
360 356 356 358 354 353 353 355 362 361 362 362 361 359 357 353 350 349 347 348 346 342
358 358 356 359 360 355 361 356 360 362 362 362 361 359 356 351 350 348 348 347 346 343
356 358 358 359 358 359 360 361 360 361 362 362 361 359 357 353 351 348 345 344 346 345
356 357 358 358 358 359 361 361 361 361 360 360 360 358 356 355 352 348 348 346 345 345
357 357 356 357 358 360 360 360 362 362 360 360 359 358 356 354 352 349 347 346 345 344
356 355 355 356 358 360 360 360 359 361 361 359 358 358 356 356 354 351 350 348 346 345
355 356 356 357 358 359 360 359 360 362 362 360 358 358 356 355 355 352 351 350 348 346
357 358 358 358 358 359 360 359 361 361 361 361 358 355 356 355 354 353 351 351 349 347
357 358 358 358 358 359 359 359 361 360 360 359 356 341 338 351 353 353 353 351 350 349
356 356 357 358 359 358 358 359 359 359 359 359 360 333 332 338 355 353 353 353 352 348
353 355 357 357 357 358 358 357 358 358 359 359 358 330 328 335 354 355 355 354 353 351
354 355 356 355 356 357 357 358 358 359 359 358 359 326 326 333 351 354 354 354 353 351
357 356 356 357 357 358 358 357 357 358 359 350 359 325 323 331 352 352 350 353 352 330
359 358 358 356 358 360 359 358 358 357 358 358 354 352 320 320 353 351 349 348 344 348

GFSNIL_sfc_thetae_030.txt.gz
Theta_e
370 360 361 364 358 357 355 357 362 364 365 366 366 367 367 363 360 359 356 353 351 342
369 367 360 368 368 360 367 358 361 362 365 365 366 367 367 361 361 357 356 352 352 346
366 369 369 370 369 368 366 367 363 363 363 364 366 367 367 362 362 359 354 350 350 351
363 365 367 367 369 370 368 370 367 368 364 363 364 367 366 366 362 360 357 355 350 351
367 367 364 367 368 371 370 370 371 370 367 365 363 366 365 363 360 360 357 357 354 350
363 363 366 368 368 370 370 370 364 368 370 367 365 366 365 364 363 361 360 358 356 353
364 365 365 368 368 369 370 370 369 369 371 369 366 364 363 362 362 363 360 360 359 356
365 367 368 368 368 369 370 370 370 370 371 370 364 360 366 365 362 363 362 361 360 359
366 368 367 368 368 369 369 369 370 368 369 368 362 344 340 357 363 365 365 362 360 360
366 367 367 368 369 368 367 369 369 368 368 368 369 336 334 341 361 365 364 364 362 358
365 366 368 369 367 368 368 367 367 368 369 369 368 335 330 337 361 365 365 365 364 365
365 362 364 366 366 367 366 366 366 365 368 369 369 330 326 336 359 359 366 365 364 364
365 365 363 366 368 368 367 364 361 363 367 355 369 331 323 335 356 357 356 365 367 336
366 366 367 369 369 368 366 364 366 362 364 367 364 362 320 321 357 356 355 354 356 358

GFSNIL_sfc_thetae_033.txt.gz
Theta_e
373 362 360 364 355 354 353 354 368 371 370 370 370 369 373 365 362 365 359 357 356 345
371 370 364 367 369 362 365 356 368 370 370 370 370 372 374 362 367 366 361 360 358 349
371 373 371 372 372 367 368 371 371 367 368 369 371 372 373 366 369 367 358 352 360 358
369 371 373 370 372 373 373 375 370 372 370 369 369 371 372 370 369 366 365 362 361 358
370 370 370 371 371 374 374 373 374 374 372 370 369 370 371 368 361 366 362 360 361 356
367 369 368 371 372 373 374 374 372 373 373 371 369 370 372 371 368 367 366 365 363 360
367 368 369 371 373 373 374 373 372 373 373 373 371 370 370 370 369 368 367 367 366 364
368 370 371 371 372 373 373 373 374 373 372 374 372 366 369 368 368 368 368 368 367 367
369 371 372 373 372 374 373 373 373 372 371 370 368 347 341 360 367 368 368 367 368 367
368 370 372 373 374 372 372 373 372 371 372 371 372 339 335 341 367 367 367 369 368 365
367 369 372 373 372 373 373 372 371 371 373 372 371 339 331 336 363 366 367 368 368 368
368 368 370 370 371 372 371 371 370 372 372 372 371 335 329 334 359 361 363 366 369 368
370 369 369 371 372 373 372 370 368 369 371 360 371 340 327 333 359 359 360 364 368 340
370 371 371 372 373 373 372 369 370 369 370 371 367 368 324 324 361 359 358 358 360 364

GFSNIL_sfc_thetae_036.txt.gz
Theta_e
365 361 356 364 355 353 355 356 365 364 366 366 365 366 370 368 365 364 361 361 356 351
360 365 360 361 364 361 360 360 368 365 365 364 367 368 369 362 364 366 362 359 359 354
362 364 365 362 363 360 365 362 373 365 364 365 365 368 367 364 366 363 361 358 355 354
364 362 363 363 365 368 363 372 364 368 365 365 365 365 366 363 363 364 361 357 356 353
364 365 364 362 364 367 369 366 371 368 365 365 364 365 364 363 359 362 360 357 354 354
362 363 364 365 364 365 366 368 365 369 367 364 364 363 364 363 362 358 362 361 357 355
362 363 364 365 367 365 365 365 367 366 366 367 365 364 363 364 364 362 361 363 361 359
363 365 365 365 366 367 366 365 366 366 366 366 366 364 363 363 364 363 361 361 363 362
363 363 365 365 366 366 367 367 367 366 365 365 365 349 343 357 362 364 362 360 362 363
362 362 364 366 366 365 366 367 366 366 366 364 365 341 338 342 362 361 362 361 361 361
364 363 365 366 365 366 366 367 366 366 367 366 365 340 333 338 358 360 361 362 362 361
365 364 365 365 365 367 367 366 367 367 367 366 366 336 331 334 355 357 359 361 363 362
364 364 364 366 367 368 368 367 367 367 368 357 366 341 328 332 357 355 355 358 361 340
365 363 365 367 369 369 368 368 367 366 367 368 364 364 327 323 359 358 355 354 356 359

GFSNIL_sfc_thetae_039.txt.gz
Theta_e
354 352 348 351 345 345 349 353 354 358 357 356 356 355 357 355 355 353 348 349 343 337
351 357 349 347 353 343 347 351 356 357 359 357 356 355 356 358 354 354 351 347 348 342
351 351 356 349 348 352 346 348 354 356 358 357 357 357 357 356 357 353 354 351 347 345
355 352 355 355 350 355 351 353 352 357 357 356 357 359 357 354 354 354 352 350 347 345
357 356 352 355 355 351 356 353 357 359 357 358 357 356 358 355 355 352 352 351 346 346
355 357 353 354 355 357 353 359 354 359 358 357 358 357 357 358 356 353 355 354 349 346
356 356 357 356 355 354 359 357 361 355 359 359 359 358 358 357 357 356 353 355 354 351
357 357 357 357 358 358 355 359 358 359 357 360 358 359 357 358 357 356 356 353 357 355
357 357 356 357 357 359 359 356 357 357 357 358 360 346 342 354 357 357 356 355 353 357
356 355 356 356 358 357 358 360 357 356 358 357 359 338 337 342 358 356 357 357 356 353
355 356 356 357 356 358 358 359 359 359 358 359 359 338 333 338 356 357 356 358 358 356
355 354 356 356 357 358 358 358 359 361 360 359 360 333 331 333 353 356 356 357 358 358
356 356 355 356 357 359 360 359 360 359 362 352 361 336 327 332 354 354 354 355 356 339
358 357 358 357 359 359 360 360 360 360 361 362 359 358 325 323 354 356 355 354 353 354

GFSNIL_sfc_thetae_042.txt.gz
Theta_e
347 348 346 342 340 341 346 348 350 354 354 354 353 353 350 349 351 347 345 344 338 335
350 348 348 345 345 339 345 352 351 355 354 354 353 353 352 350 349 351 345 343 345 338
348 353 351 347 345 347 342 349 352 352 356 354 353 352 351 353 350 351 349 347 342 342
347 348 353 350 345 346 348 343 348 352 353 355 353 352 350 351 354 350 350 349 346 343
351 349 347 352 349 347 347 349 344 352 352 354 354 353 352 351 354 354 350 350 347 347
351 351 348 348 354 351 348 349 350 353 352 353 354 354 355 353 352 352 353 352 350 349
351 353 353 351 350 355 353 347 350 354 355 355 355 354 354 355 354 352 352 353 352 350
351 353 355 353 352 351 353 355 350 353 355 356 356 357 355 354 353 354 353 352 354 353
353 353 353 355 354 352 351 351 355 353 355 354 357 344 341 352 354 354 352 351 352 353
353 354 354 354 354 354 353 352 349 352 355 354 356 337 336 341 355 354 354 353 353 353
354 353 354 354 353 354 355 355 354 351 353 354 355 335 332 337 353 355 354 354 354 354
352 354 353 353 353 354 354 354 355 356 355 352 354 332 329 333 350 353 355 356 355 356
352 353 353 354 354 355 355 355 356 356 358 350 356 332 326 331 353 352 353 356 356 338
349 353 354 355 355 355 355 355 355 355 357 358 355 355 323 323 353 355 354 354 354 356

GFSNIL_sfc_thetae_045.txt.gz
Theta_e
342 342 342 342 339 339 342 344 347 350 350 349 350 349 347 346 347 343 343 340 333 334
344 343 343 342 341 340 340 345 345 348 352 351 350 350 348 346 346 348 343 342 341 335
345 345 345 344 341 339 341 345 346 347 349 350 351 350 349 347 346 347 347 343 340 340
346 346 347 346 344 345 340 344 347 347 350 350 350 350 349 350 350 347 347 347 344 341
347 348 349 347 345 344 346 341 345 347 348 351 351 350 349 348 351 350 347 348 347 346
345 344 346 350 350 345 344 344 343 346 348 350 352 351 350 350 349 350 351 350 349 349
346 347 345 346 349 351 348 345 346 346 348 350 351 352 352 352 350 350 351 352 351 351
349 349 349 347 346 349 351 349 348 348 350 351 351 352 352 352 351 350 349 350 351 352
348 349 350 349 348 346 348 352 349 347 348 350 353 342 340 349 351 351 350 349 350 351
348 348 350 351 350 348 347 348 350 350 349 349 351 336 336 340 352 351 350 350 350 350
349 349 349 350 351 351 350 348 348 348 351 351 352 335 332 337 351 353 352 352 352 351
350 350 351 349 350 351 352 351 350 350 348 347 350 330 330 333 348 351 352 353 353 353
350 351 350 352 351 352 352 352 354 353 354 345 349 331 326 331 350 350 351 353 354 337
350 351 352 352 353 352 352 352 351 352 354 355 351 350 323 322 349 351 351 351 352 354

GFSNIL_sfc_thetae_048.txt.gz
Theta_e
342 341 342 342 341 341 342 346 350 351 353 352 353 353 352 350 350 350 348 346 340 340
343 342 342 343 344 343 343 346 349 351 352 353 353 353 352 350 350 352 349 349 348 342
343 343 343 344 343 343 343 346 348 348 351 353 353 353 353 352 351 351 352 349 347 347
343 344 345 344 344 344 343 345 347 348 349 350 352 353 353 353 352 350 351 352 349 347
344 345 345 345 345 345 343 345 348 349 349 351 351 353 352 352 354 351 350 351 351 351
344 345 345 346 347 347 347 344 346 348 349 350 352 353 352 353 352 354 354 353 352 352
344 345 346 348 348 346 347 347 346 347 349 350 352 353 354 353 352 352 353 355 354 354
345 346 347 348 350 351 347 346 348 347 348 350 351 352 353 354 353 352 352 353 354 355
346 346 346 346 346 349 351 350 349 348 349 348 349 340 338 349 353 353 352 351 353 354
346 347 347 348 347 346 347 351 350 349 349 349 351 335 335 339 353 353 353 353 353 353
346 347 348 349 348 348 347 347 350 351 350 349 349 333 331 336 351 353 354 354 354 354
347 347 348 348 349 350 350 348 348 349 351 351 351 329 328 333 350 351 353 355 356 355
350 349 348 349 350 352 353 351 351 350 351 344 351 331 325 331 350 349 351 354 355 337
351 351 351 351 352 352 352 353 353 353 354 354 348 349 323 321 350 351 351 351 352 355

GFSNIL_sfc_thetae_051.txt.gz
Theta_e
358 351 351 354 350 350 349 352 360 361 362 363 363 363 364 361 360 360 357 357 353 347
356 356 352 357 356 352 357 351 357 360 361 362 363 363 364 359 361 362 361 360 360 354
355 356 356 357 356 357 354 355 354 359 360 361 362 363 364 360 362 362 360 358 360 360
352 352 353 353 355 357 356 356 357 359 359 360 360 362 362 362 361 361 362 361 360 361
354 354 352 354 354 358 358 356 357 359 359 359 359 360 360 359 358 360 360 361 361 359
352 352 354 355 356 357 357 357 355 356 358 359 359 359 360 360 360 360 360 362 362 361
352 353 354 356 357 355 359 357 357 357 358 359 359 359 360 359 360 360 360 362 363 362
354 355 356 357 358 358 358 359 359 358 357 358 357 355 358 359 359 360 360 361 362 363
355 356 356 357 358 359 357 359 360 358 357 357 354 340 338 353 358 361 360 359 361 363
356 355 356 357 359 359 358 358 359 357 357 358 360 334 334 340 357 359 360 361 361 359
356 355 357 357 357 358 358 359 357 357 360 359 359 333 330 334 355 360 363 363 363 363
355 356 356 356 357 356 355 356 357 358 359 359 360 330 328 335 355 356 361 362 363 364
356 356 357 358 358 360 358 357 354 355 359 350 360 333 325 332 353 355 353 361 364 338
358 358 359 360 361 360 358 359 358 357 360 359 356 358 324 321 353 353 353 353 354 357

GFSNIL_sfc_thetae_054.txt.gz
Theta_e
363 353 354 358 354 353 351 353 360 364 365 366 365 365 366 362 360 364 359 360 357 346
363 362 356 365 359 355 361 353 357 360 363 364 365 366 366 360 363 363 363 361 361 357
358 361 362 361 362 362 358 360 358 359 360 360 363 365 367 362 364 364 360 359 362 362
357 358 359 358 360 362 361 361 362 360 359 358 362 364 365 364 362 364 364 363 361 364
360 361 357 359 359 362 362 362 362 362 360 359 360 364 364 362 359 360 361 363 363 362
356 357 359 360 359 363 362 362 361 361 361 360 360 362 364 363 362 360 361 362 363 363
356 358 357 363 364 361 364 362 362 362 362 361 360 359 361 362 362 361 361 363 363 364
362 362 363 364 365 364 364 363 363 363 363 362 359 355 360 360 360 361 361 362 364 365
365 364 364 366 367 367 365 366 365 362 362 361 357 340 338 351 357 360 361 361 363 365
365 364 365 366 367 366 366 365 366 362 362 364 363 334 333 338 356 356 360 365 362 360
364 365 366 366 367 368 365 365 364 363 366 366 365 333 330 335 357 360 363 364 364 366
364 364 363 363 364 364 364 363 363 363 365 365 367 330 329 336 356 356 362 363 366 367
365 366 364 365 367 367 364 364 361 362 365 353 366 334 326 335 356 357 354 364 368 340
365 366 367 369 368 367 364 364 364 362 366 369 362 362 323 321 358 354 353 352 352 355

GFSNIL_sfc_thetae_057.txt.gz
Theta_e
365 353 352 359 353 351 349 352 371 366 365 366 366 365 368 361 360 367 359 361 363 348
363 360 352 360 365 356 361 354 357 364 364 364 364 367 370 359 366 365 364 364 363 356
363 365 362 364 368 363 365 367 361 362 361 363 366 366 372 365 366 368 361 357 368 365
362 362 363 366 367 369 368 370 368 367 364 363 363 366 372 370 366 364 367 366 363 367
364 362 360 361 366 370 369 368 370 368 367 363 362 367 369 363 362 363 362 364 367 361
361 362 360 365 364 368 369 370 364 368 369 366 363 367 368 369 366 364 364 364 366 365
361 362 362 365 367 367 369 370 369 370 370 368 365 365 364 366 367 367 364 366 367 366
362 364 365 365 368 368 369 369 371 371 370 370 364 358 364 366 366 368 365 366 367 367
364 365 365 365 367 369 369 370 371 369 370 368 359 343 339 356 362 366 366 366 368 369
365 365 365 366 367 368 368 370 370 370 369 369 370 336 334 339 360 363 365 367 368 364
366 365 366 367 367 369 369 369 370 370 371 371 369 336 329 335 360 360 364 367 368 369
366 367 367 367 368 369 370 369 369 370 371 371 371 333 329 335 358 358 363 365 366 368
368 369 368 369 370 371 370 369 366 368 372 360 373 335 326 335 357 358 356 365 367 340
370 370 372 373 373 372 371 366 370 368 371 372 367 368 324 322 361 355 355 354 353 357

GFSNIL_sfc_thetae_060.txt.gz
Theta_e
361 354 355 362 356 362 355 356 364 367 365 367 368 367 367 366 365 365 364 364 364 358
358 358 353 362 365 359 364 362 363 365 368 366 368 367 366 362 363 363 366 363 366 363
352 357 358 354 363 359 365 364 365 366 365 366 369 369 368 364 365 363 361 362 362 363
356 355 354 357 353 362 360 372 367 370 366 365 365 368 367 365 365 363 363 366 365 362
358 355 355 351 359 361 363 364 369 367 370 365 365 365 365 363 358 362 362 364 363 364
358 358 356 354 353 361 361 366 363 367 364 365 363 363 364 365 362 362 364 364 363 362
357 357 357 359 354 360 362 360 363 364 365 365 363 361 361 365 364 363 361 364 362 364
359 359 359 357 358 354 359 362 363 363 365 365 364 360 360 361 363 363 362 362 364 364
359 359 359 358 359 360 359 361 363 363 363 364 363 346 341 354 359 363 362 361 362 366
359 359 358 361 358 361 359 362 362 362 364 363 365 338 335 342 358 358 361 362 362 361
358 358 360 359 361 359 362 361 362 362 363 364 364 339 331 336 354 357 360 360 362 362
358 359 359 359 359 360 360 361 361 363 363 363 364 335 332 333 350 353 355 357 361 364
361 359 360 360 360 362 362 361 362 362 364 355 364 336 329 333 354 352 353 357 359 338
365 361 363 363 363 363 363 362 363 363 364 366 363 362 325 322 356 354 354 353 354 357

GFSNIL_sfc_thetae_063.txt.gz
Theta_e
351 346 347 349 349 351 352 352 353 356 355 354 357 354 354 352 353 350 353 348 349 347
351 347 345 347 350 349 350 352 354 359 355 355 356 355 354 351 353 352 352 350 350 350
347 351 346 346 349 348 346 351 354 358 356 357 356 354 354 349 353 351 349 349 350 348
344 349 349 346 344 350 348 353 357 357 357 357 356 356 355 351 353 351 350 350 351 350
347 344 348 346 347 345 348 350 356 358 357 355 354 356 355 352 351 352 351 351 351 352
350 345 344 345 346 344 352 347 356 355 356 355 355 354 355 355 353 351 353 353 353 350
350 350 345 345 343 349 349 356 351 357 355 356 354 353 354 355 355 353 353 356 354 355
352 352 352 348 347 342 351 350 355 353 357 356 356 355 352 354 356 355 353 352 354 355
352 352 352 351 350 346 344 353 350 352 354 356 358 345 342 350 354 356 355 354 353 355
352 352 352 352 351 351 345 348 353 353 354 354 357 339 337 342 352 351 355 355 354 354
352 351 353 352 351 350 351 347 348 352 355 355 357 338 333 338 349 351 352 356 355 354
351 352 353 350 351 351 352 352 351 354 355 355 357 334 332 332 343 348 350 352 353 355
351 352 352 353 351 354 352 352 355 353 356 350 356 335 329 331 348 343 346 349 350 337
353 351 353 353 354 353 354 353 353 354 355 357 354 355 326 324 353 351 346 346 348 350

GFSNIL_sfc_thetae_066.txt.gz
Theta_e
344 343 344 346 347 349 351 351 352 352 352 352 350 351 350 347 349 348 348 347 346 344
347 345 342 345 346 349 349 350 351 352 351 351 353 349 350 349 348 349 347 348 345 346
344 347 343 344 344 347 347 348 350 354 352 351 352 351 349 347 348 349 347 347 346 344
342 344 346 343 343 345 345 348 349 354 352 352 351 349 350 346 346 348 347 345 345 346
341 343 345 346 343 343 345 348 351 353 354 352 353 352 351 348 349 349 347 346 346 348
342 340 342 345 345 342 343 345 352 353 354 354 353 353 353 352 349 348 349 349 347 348
347 343 340 342 345 344 341 343 349 353 353 353 353 353 353 353 350 349 349 350 350 350
348 349 345 340 342 343 344 345 345 349 353 353 353 353 351 352 351 350 349 350 351 352
347 349 349 346 341 342 340 345 346 349 351 351 354 342 340 348 351 351 350 348 349 350
350 349 349 349 346 343 342 339 345 346 350 351 353 336 336 341 350 352 352 351 351 351
351 350 350 349 349 347 346 341 340 347 346 350 352 336 333 337 349 348 350 353 354 352
351 351 351 349 349 350 349 347 342 345 350 348 349 331 330 333 348 349 348 349 351 353
348 350 350 350 350 351 351 349 349 346 346 345 352 333 327 331 351 349 348 348 350 335
349 349 351 351 352 351 351 350 350 349 349 348 348 350 325 324 351 351 348 346 346 349

GFSNIL_sfc_thetae_069.txt.gz
Theta_e
339 342 342 343 342 345 347 350 349 349 348 348 347 348 347 346 347 346 345 344 344 341
341 340 341 344 343 346 346 350 349 351 348 350 349 348 347 346 344 346 344 345 344 342
344 344 341 342 344 344 346 347 348 351 348 349 350 349 346 345 346 346 346 346 345 342
341 342 343 342 342 345 346 346 346 350 350 349 349 349 347 345 345 345 345 343 343 342
340 341 343 343 341 341 343 344 347 347 350 350 349 348 347 346 347 344 344 345 342 343
340 339 340 342 343 340 341 342 346 348 349 349 350 349 349 348 346 346 346 347 345 344
340 339 340 340 342 344 340 341 343 349 350 351 350 351 350 350 348 347 347 347 347 347
343 342 340 339 340 341 342 342 341 345 350 350 351 352 350 350 350 349 348 347 348 348
344 344 342 339 338 339 341 341 340 341 344 349 352 341 339 348 350 350 348 347 347 349
344 344 345 344 340 337 338 339 338 341 343 344 348 336 335 339 350 348 348 348 347 347
345 343 345 346 344 341 339 339 338 337 339 344 346 334 332 336 348 349 349 349 349 348
347 347 346 346 346 347 344 341 341 339 338 340 342 330 330 332 346 347 347 348 349 350
341 349 349 349 348 348 348 346 345 343 341 337 343 328 326 331 348 347 348 349 348 334
341 343 345 350 350 350 349 348 347 346 345 343 343 345 322 323 349 348 347 347 347 348

GFSNIL_sfc_thetae_072.txt.gz
Theta_e
343 343 344 343 343 345 347 350 353 353 352 353 351 350 352 350 351 351 349 350 351 348
341 342 343 345 346 346 349 351 354 354 353 353 352 351 351 350 351 352 351 351 351 349
341 342 343 345 346 346 349 350 353 353 353 353 352 353 352 351 351 351 351 351 351 351
343 343 342 343 346 348 349 349 350 353 353 352 351 352 349 350 351 350 351 351 350 350
342 344 344 342 344 346 348 349 350 351 353 353 353 352 352 351 352 349 349 350 350 349
340 340 343 344 344 345 346 346 348 350 350 352 353 352 353 352 352 351 350 350 350 350
340 341 341 343 345 344 345 345 346 348 350 352 353 353 353 352 352 352 352 352 352 353
342 342 342 342 342 345 345 345 346 346 350 352 353 353 353 353 352 352 351 353 352 353
344 344 342 341 341 342 344 344 344 344 347 350 351 341 339 349 352 353 352 351 352 354
344 344 344 343 341 340 340 343 343 343 344 346 349 335 335 340 353 353 352 353 353 352
343 344 345 345 343 341 341 340 341 342 343 343 345 332 331 336 351 353 353 353 352 352
345 344 345 345 346 345 343 341 340 341 341 342 343 327 328 333 348 349 351 353 353 353
338 345 347 345 346 347 348 345 344 343 343 336 341 327 324 329 346 345 346 350 352 334
335 338 345 348 349 348 348 347 348 346 346 345 340 341 321 321 345 346 345 345 347 352

GFSNIL_sfc_thetae_075.txt.gz
Theta_e
356 352 353 356 354 354 354 356 362 363 363 363 362 360 361 358 357 360 358 358 361 358
356 355 354 357 357 355 359 356 361 362 363 362 363 362 362 357 361 364 361 360 360 357
352 354 356 357 357 358 358 361 360 362 362 363 363 363 362 359 360 360 359 357 360 360
351 351 354 354 356 359 361 361 361 362 361 362 362 363 363 362 361 360 360 361 360 360
352 352 351 352 353 357 358 361 361 362 362 362 362 362 362 360 359 359 357 358 360 358
346 349 351 352 353 354 356 358 358 360 361 361 362 362 362 362 361 361 360 358 358 358
344 344 350 355 355 354 355 356 357 358 359 361 362 363 362 362 362 362 361 361 360 360
350 348 346 351 356 355 355 354 356 356 357 359 358 357 360 361 361 361 360 361 361 361
352 353 353 354 355 355 354 354 354 353 355 355 353 340 339 353 359 361 360 360 361 362
352 351 353 352 353 353 354 354 354 353 353 355 358 335 334 340 356 359 360 361 361 359
349 349 352 353 352 353 352 353 353 352 354 355 354 334 330 335 355 360 361 361 362 362
347 350 350 351 352 353 352 350 350 351 353 354 355 329 328 334 352 353 359 362 362 363
341 343 351 352 353 354 355 352 352 351 352 343 354 332 324 331 348 351 350 357 361 337
336 337 339 351 356 354 355 355 354 354 355 355 351 350 322 320 348 348 350 350 350 352

GFSNIL_sfc_thetae_078.txt.gz
Theta_e
363 357 355 357 353 353 353 356 362 365 361 362 362 363 365 357 355 360 354 357 360 353
362 361 356 358 358 355 360 356 361 364 363 362 362 363 365 357 359 360 360 359 358 355
359 361 361 359 358 359 357 362 360 364 364 362 364 365 366 360 361 361 357 356 359 361
357 358 360 358 358 360 360 361 363 365 365 364 362 364 366 364 361 361 360 361 361 361
359 358 356 358 358 361 360 361 364 366 366 361 362 364 366 362 359 360 358 360 361 360
353 355 355 356 359 360 360 360 359 362 365 364 361 363 365 365 364 361 360 359 361 360
353 354 354 356 359 359 360 360 359 360 362 363 363 363 365 365 365 363 361 363 363 362
355 356 356 354 357 359 360 360 361 359 360 362 361 359 365 365 364 364 364 364 365 364
355 357 357 357 351 358 359 360 361 359 358 357 353 340 338 352 362 363 364 362 364 366
354 355 356 358 358 358 357 359 360 359 359 360 360 334 333 339 356 357 361 363 362 359
348 351 355 356 357 358 358 358 358 358 361 360 360 334 331 335 356 358 361 363 363 365
333 340 349 353 354 358 357 357 357 358 359 360 362 330 329 336 354 352 359 362 365 366
332 332 335 346 352 356 359 356 356 357 359 349 360 336 324 333 352 352 351 360 364 339
330 332 334 335 343 352 357 362 360 357 360 362 356 357 323 321 353 351 351 351 352 354

GFSNIL_sfc_thetae_081.txt.gz
Theta_e
365 357 354 359 361 356 354 357 367 363 362 362 362 362 364 359 358 365 357 358 365 355
365 363 360 365 362 355 366 356 362 361 361 362 362 363 366 358 363 362 361 360 361 357
361 364 363 361 362 361 362 361 354 361 364 363 362 363 366 365 364 361 357 353 366 364
361 361 363 360 360 361 361 362 362 364 365 363 364 363 369 367 363 361 360 362 361 362
363 363 359 361 361 363 364 362 364 366 364 363 361 365 365 361 358 358 359 359 362 358
358 358 359 361 361 365 364 365 359 363 365 363 360 365 366 365 363 361 361 361 360 359
357 357 358 363 366 362 367 365 363 364 366 364 362 361 362 364 365 364 362 363 364 362
358 358 359 360 362 363 366 366 366 366 364 365 360 358 364 364 364 364 365 364 365 366
357 357 360 360 360 360 362 368 369 366 365 363 355 341 339 354 364 367 369 364 366 368
344 350 354 360 363 361 359 363 367 366 366 366 366 338 333 340 357 362 366 369 368 363
335 341 348 351 356 359 361 361 362 365 367 368 365 337 331 334 359 360 363 365 369 369
331 333 339 343 343 355 361 358 358 359 364 364 367 334 329 335 356 354 358 362 364 364
334 332 333 335 341 345 355 358 363 358 362 351 364 339 328 332 355 356 354 361 363 340
333 334 333 335 340 340 342 349 356 358 363 365 360 362 325 322 358 355 354 354 355 358

GFSNIL_sfc_thetae_087.txt.gz
Theta_e
350 350 348 351 346 350 342 346 349 353 353 355 352 353 353 352 351 349 349 346 344 346
352 351 349 349 349 348 347 352 353 350 353 353 354 352 353 351 351 351 349 347 348 347
353 354 354 355 353 352 350 349 349 350 348 352 354 354 352 349 351 350 350 352 347 348
355 355 354 354 355 352 349 348 347 345 341 347 352 353 352 350 350 352 349 348 350 346
355 355 356 355 355 354 349 349 345 338 337 343 350 354 352 351 351 350 348 348 349 347
354 355 355 356 355 355 355 352 352 349 348 351 352 352 353 352 351 352 349 350 349 349
344 348 353 356 356 356 356 355 353 354 352 355 354 355 355 354 351 351 354 352 353 351
345 347 350 350 353 353 355 356 356 355 355 357 355 356 354 355 354 352 351 352 354 355
342 343 342 347 350 351 350 351 354 355 355 354 357 346 342 350 351 355 351 349 352 355
337 339 340 342 341 339 342 351 350 351 352 354 354 338 336 337 345 350 352 353 352 352
332 334 336 338 337 339 339 341 346 349 351 352 354 337 331 335 340 343 346 350 353 354
332 331 331 332 334 337 338 340 341 343 347 347 350 337 330 331 342 344 346 348 349 351
329 327 326 329 330 334 336 339 344 344 345 342 349 338 326 330 344 347 349 349 349 335
322 323 324 325 327 328 329 333 336 340 341 344 344 337 323 321 336 346 347 349 350 351

GFSNIL_sfc_thetae_090.txt.gz
Theta_e
347 346 345 345 343 346 344 343 347 351 351 350 350 348 349 347 347 346 346 343 342 340
348 347 345 347 344 348 345 346 348 349 351 351 351 348 349 347 347 347 346 344 343 343
348 349 348 346 347 346 345 347 349 348 350 350 351 350 349 347 346 347 347 348 346 343
350 350 350 350 350 348 347 347 346 346 348 347 349 351 349 346 347 346 346 346 346 345
350 350 351 351 351 351 347 346 345 344 341 341 346 349 349 347 350 346 346 345 344 346
345 346 350 351 352 352 347 345 345 341 337 335 342 347 351 349 348 349 348 346 345 346
341 343 345 349 351 349 351 347 347 347 345 346 349 349 350 351 346 348 349 350 349 349
342 342 344 348 348 352 350 352 351 350 351 351 352 353 350 352 351 349 348 350 351 351
340 341 342 341 340 343 346 348 349 351 350 349 355 341 338 346 350 351 350 348 348 350
337 337 338 338 339 338 339 341 344 344 347 349 350 339 334 336 342 345 347 349 348 349
332 332 333 334 334 337 338 338 339 342 343 343 349 336 332 334 341 342 343 346 350 350
328 328 331 331 333 334 336 336 338 341 340 342 345 330 326 330 342 342 344 346 346 347
322 323 326 326 327 332 331 333 336 337 341 336 346 320 319 327 340 341 344 347 348 334
314 316 320 320 321 324 321 323 326 331 336 337 331 325 318 319 331 331 335 338 343 343

GFSNIL_sfc_thetae_093.txt.gz
Theta_e
344 341 340 342 343 343 343 344 346 348 349 347 347 345 341 345 345 344 344 342 341 339
345 344 342 343 344 343 346 345 344 347 348 346 346 346 346 345 344 346 344 342 341 341
345 346 345 344 345 343 345 345 343 347 347 349 350 348 345 345 345 343 344 344 344 341
345 346 347 345 346 347 345 344 346 346 346 347 347 348 346 345 345 344 344 343 343 342
346 347 347 344 347 349 347 343 344 345 345 345 345 347 347 347 348 345 344 343 342 342
343 344 346 346 348 349 349 344 344 343 341 340 339 342 347 349 345 346 345 346 344 342
340 340 343 344 346 346 350 347 344 343 341 338 338 340 344 348 346 346 346 347 347 346
341 341 341 340 341 344 347 349 347 345 346 346 347 349 348 348 349 347 346 346 347 349
338 338 337 338 339 339 340 342 344 345 346 344 351 343 338 345 347 348 348 347 347 348
336 333 334 334 335 336 336 338 339 342 344 346 345 334 332 336 344 344 344 346 347 348
331 331 332 332 331 333 333 334 336 338 339 339 343 328 328 333 338 341 341 342 344 346
324 328 329 328 330 331 330 329 331 336 338 338 340 321 322 333 340 341 342 343 344 344
315 319 319 322 324 329 326 327 329 332 337 332 333 320 323 330 336 332 334 338 341 325
310 312 313 316 320 319 319 320 328 334 334 333 329 328 315 317 326 324 324 328 331 334

GFSNIL_sfc_thetae_096.txt.gz
Theta_e
344 343 344 345 347 347 347 349 351 352 353 351 350 348 346 349 350 351 350 349 348 347
346 344 343 346 348 347 349 349 350 351 353 351 351 352 352 351 351 352 351 349 349 348
346 347 347 347 347 347 347 350 349 348 349 351 352 353 350 351 351 350 349 350 350 349
345 348 349 347 349 350 350 349 347 348 349 350 351 353 352 350 350 350 350 350 350 350
345 347 348 347 348 351 351 349 346 348 349 350 349 351 352 350 352 347 349 349 349 347
345 347 347 348 350 351 352 351 348 347 347 344 346 348 350 351 351 350 350 348 349 348
341 342 343 345 346 348 351 351 348 347 347 346 346 344 344 349 352 352 351 351 351 350
340 340 341 341 341 343 344 347 350 349 348 347 345 345 347 349 351 352 352 353 353 353
338 337 336 339 339 339 339 341 343 345 347 348 349 336 336 347 352 353 353 353 355 355
334 334 334 335 335 334 335 337 339 341 341 341 344 328 329 335 347 351 351 351 352 351
333 332 332 330 330 330 330 332 334 337 339 341 338 323 324 331 343 346 345 346 347 347
323 324 326 328 329 328 326 326 328 333 339 331 326 318 323 333 341 339 340 343 340 341
315 317 319 323 326 327 325 327 330 334 333 326 325 312 315 323 328 327 330 334 336 327
311 312 314 314 315 316 315 317 324 322 319 316 313 310 309 311 319 321 326 327 328 330

GFSNIL_sfc_thetae_099.txt.gz
Theta_e
360 355 356 358 355 355 356 356 361 361 364 362 361 359 359 357 359 362 360 358 360 356
356 356 356 358 358 357 359 358 359 360 361 362 362 362 360 354 359 361 362 361 361 358
356 357 357 358 358 358 360 359 359 359 359 360 361 362 362 359 361 360 359 357 360 361
355 357 358 357 358 359 360 359 359 359 357 357 357 361 363 362 359 359 359 360 359 359
356 356 357 357 359 360 359 360 359 359 359 360 359 360 361 360 359 358 357 357 359 358
355 354 354 356 358 359 359 361 360 359 359 359 357 356 358 359 359 359 359 359 357 357
351 354 354 357 356 359 360 359 360 359 359 359 356 355 355 355 358 360 358 359 360 359
345 346 351 352 353 352 356 357 359 359 359 358 356 353 355 355 355 355 359 361 360 361
340 343 346 348 348 348 349 352 353 353 353 352 354 328 331 345 358 360 360 360 362 362
337 337 338 342 343 342 345 347 348 349 350 345 336 324 326 334 357 359 360 359 359 358
334 334 334 338 338 339 341 341 344 347 338 333 326 320 323 332 354 354 352 347 346 343
333 331 332 332 333 335 337 339 345 336 334 327 322 314 318 333 336 338 337 337 331 331
324 328 326 331 330 333 335 337 332 323 320 314 316 310 311 323 332 332 332 333 333 319
322 323 323 322 323 325 325 321 319 318 316 311 308 307 307 309 319 320 327 326 326 324

GFSNIL_sfc_thetae_102.txt.gz
Theta_e
359 352 351 354 357 353 358 355 363 360 360 362 361 362 364 359 356 360 356 357 361 354
357 357 356 358 362 356 359 361 363 362 360 362 361 363 364 357 360 362 361 359 359 356
356 358 356 358 356 360 365 364 363 363 362 360 361 360 362 359 360 362 357 355 360 360
355 355 358 356 356 358 359 363 363 365 364 363 361 362 363 362 360 359 358 359 359 360
353 355 354 356 356 360 358 363 361 363 365 362 358 362 362 359 356 358 355 355 357 357
352 352 354 356 357 361 359 359 359 362 361 358 360 361 361 360 359 359 357 356 356 355
353 353 354 357 359 359 362 357 358 359 361 360 359 360 362 360 359 359 357 359 357 358
354 357 358 358 360 360 361 359 362 360 361 362 360 355 361 362 360 360 359 360 359 359
343 348 352 354 356 358 359 361 362 360 360 361 357 327 330 345 360 362 360 358 360 360
343 343 344 347 351 354 355 356 356 356 356 348 345 322 327 334 359 362 358 358 359 358
341 339 338 338 341 345 348 350 352 349 346 340 329 318 324 336 358 352 350 351 348 346
336 334 334 333 337 340 346 347 347 343 338 332 324 312 315 339 348 345 343 338 338 340
333 339 340 340 336 335 343 335 331 331 326 319 318 308 310 326 341 339 338 338 335 317
329 331 333 334 336 333 325 322 324 321 313 312 311 310 306 308 326 331 330 329 328 326

GFSNIL_sfc_thetae_105.txt.gz
Theta_e
361 354 352 357 360 357 353 355 363 361 360 360 363 362 364 359 355 365 357 359 367 356
359 358 357 350 359 359 361 360 363 360 361 361 361 362 364 358 361 363 361 362 361 357
357 358 358 359 359 350 359 360 363 361 361 361 362 363 364 362 363 361 358 352 362 361
354 354 356 354 356 359 359 359 360 362 361 360 361 362 362 366 362 360 360 360 359 358
356 355 352 354 355 359 360 362 361 362 361 359 360 361 361 361 357 357 356 356 358 357
354 353 354 354 355 358 360 360 360 360 359 360 360 359 361 362 359 358 356 356 357 357
356 354 354 362 357 357 361 360 359 361 362 361 360 360 359 359 360 360 358 359 359 360
360 360 359 359 361 358 358 358 359 359 363 359 357 353 357 359 359 360 359 358 359 359
355 355 357 358 358 360 358 359 359 358 359 358 357 328 330 342 359 360 360 359 358 358
348 346 348 350 355 355 356 358 358 357 357 355 350 321 325 335 355 359 360 360 360 359
343 343 346 344 342 345 349 354 355 353 349 344 333 316 318 328 357 360 358 357 356 355
346 343 338 338 340 343 345 347 344 343 341 335 328 311 314 329 355 350 349 345 337 343
342 337 336 336 335 338 338 336 336 331 330 319 324 308 309 319 348 347 341 336 329 317
334 334 337 338 340 336 334 331 330 326 322 318 315 309 307 308 326 328 338 336 332 326

GFSNIL_sfc_thetae_108.txt.gz
Theta_e
363 360 355 352 351 343 346 349 363 367 366 367 368 367 368 366 362 364 363 365 363 360
366 364 363 356 353 347 351 352 355 363 366 365 365 368 366 364 360 357 351 361 365 361
361 363 364 355 349 346 344 352 344 350 365 367 361 362 367 361 358 362 362 360 359 364
357 359 361 361 358 345 349 355 346 358 369 367 362 361 366 364 363 360 363 364 359 359
358 358 357 361 358 366 364 367 365 366 365 366 365 367 364 360 360 354 358 361 362 360
358 358 361 355 359 365 366 365 363 365 363 362 361 359 364 364 363 359 357 361 361 359
360 356 359 355 359 363 365 363 364 362 360 362 362 360 362 363 361 361 358 359 359 352
351 357 360 360 363 363 363 360 361 363 362 362 350 338 340 358 361 359 358 363 359 362
352 351 350 352 359 362 361 362 364 360 360 359 337 326 329 337 358 360 360 358 359 357
354 351 349 349 355 351 354 358 359 359 356 344 331 319 322 330 347 356 361 362 362 358
347 346 345 344 350 350 347 346 346 344 344 340 321 314 317 324 344 358 359 352 353 343
346 343 343 341 342 343 342 342 338 337 331 331 317 311 313 324 358 349 337 334 327 333
346 343 341 339 337 341 341 335 331 326 322 321 317 308 310 322 347 344 335 329 323 318
342 341 339 338 343 338 333 329 325 321 319 315 313 310 308 310 324 327 326 331 326 323

GFSNIL_sfc_thetae_111.txt.gz
Theta_e
349 347 344 345 346 339 340 344 348 349 352 351 354 353 353 350 352 349 348 347 347 349
348 346 346 346 345 342 338 344 348 350 351 353 354 352 352 351 348 348 345 347 348 348
350 349 347 345 344 338 339 342 347 350 348 353 351 349 351 349 346 349 348 350 347 347
350 349 347 347 344 343 341 344 344 346 347 351 349 352 351 350 349 352 348 349 348 347
350 350 349 349 345 340 342 346 347 345 351 351 351 352 347 349 352 349 348 348 347 346
349 350 347 348 350 348 347 350 352 353 350 351 352 351 352 352 351 350 350 349 348 347
346 348 348 347 348 352 352 350 349 351 351 350 349 344 349 352 350 350 351 354 350 346
348 348 350 351 346 353 352 351 350 350 349 341 339 334 334 340 348 348 348 350 349 351
345 346 347 348 346 346 346 345 347 347 345 332 328 326 330 334 339 348 348 347 347 341
345 345 345 345 347 347 346 346 344 343 331 320 316 317 319 328 336 345 347 345 344 333
344 342 339 339 340 344 344 344 340 337 334 321 313 315 316 322 335 335 330 333 328 322
340 338 338 337 337 340 340 335 332 331 326 316 309 312 315 327 337 331 323 321 324 319
340 338 335 334 335 337 332 328 325 322 320 315 307 310 312 324 337 326 318 316 314 317
338 338 336 334 333 333 328 322 320 316 312 311 310 307 309 312 318 324 324 320 315 312

GFSNIL_sfc_thetae_114.txt.gz
Theta_e
345 343 342 340 342 341 339 342 345 348 349 349 351 348 350 346 349 345 344 343 345 342
346 345 343 343 343 341 338 341 344 348 348 349 350 350 349 347 347 347 342 346 345 344
345 345 344 344 343 339 337 339 341 346 347 347 351 349 348 347 344 346 345 348 341 343
345 346 343 342 341 338 335 336 340 344 344 346 348 349 349 347 346 348 346 346 345 343
346 346 342 342 343 342 337 340 342 343 343 345 348 349 347 346 352 347 345 344 345 344
347 345 344 343 343 339 340 339 343 344 342 346 349 346 346 346 345 348 348 347 346 344
345 346 346 346 346 341 338 339 345 347 347 346 342 340 341 346 347 347 347 348 348 346
345 346 346 346 345 347 346 347 347 346 340 337 336 335 335 339 341 345 344 346 348 344
343 344 346 347 348 348 345 342 342 342 336 329 328 321 329 332 337 342 343 342 336 333
342 342 342 345 346 346 344 344 340 333 326 324 319 318 320 326 332 341 342 341 335 325
342 340 340 340 342 344 343 343 340 332 326 320 320 317 318 325 333 331 331 327 322 318
340 338 338 337 337 338 338 336 334 330 323 319 314 314 318 332 329 324 321 320 317 315
339 338 336 335 336 334 332 327 324 320 314 312 311 312 314 331 328 320 316 312 313 316
338 337 335 332 332 327 324 320 316 311 311 310 308 309 310 317 327 321 318 314 312 311

GFSNIL_sfc_thetae_117.txt.gz
Theta_e
342 340 339 339 339 339 340 342 343 345 347 348 348 345 347 345 347 344 343 342 343 336
343 342 341 341 339 340 340 341 342 347 347 348 347 348 347 345 345 344 341 343 343 341
343 344 342 342 341 341 338 337 342 345 346 346 346 349 347 346 344 344 342 345 341 342
343 343 342 341 341 341 338 336 337 338 344 343 346 347 345 346 345 343 344 344 342 341
343 344 341 340 340 339 336 334 335 339 342 342 345 343 344 345 347 345 343 343 343 342
343 343 341 340 340 340 339 336 338 342 341 340 344 346 346 345 345 346 345 345 344 343
344 343 344 342 341 341 339 338 337 341 343 344 345 342 343 345 347 347 346 346 346 346
345 345 345 343 343 343 340 339 340 343 341 338 338 337 335 339 343 345 344 345 345 342
343 344 344 345 344 345 343 344 342 341 336 331 329 323 330 331 337 340 343 341 336 336
343 341 343 344 345 343 343 342 338 333 329 325 322 319 321 327 331 337 339 340 333 325
341 340 341 341 341 342 342 342 338 332 327 322 322 317 319 324 330 332 329 330 326 322
341 339 338 338 338 339 340 341 336 331 324 323 320 316 317 330 329 324 322 322 324 325
339 337 337 337 337 336 335 330 326 321 319 317 318 316 317 327 325 320 317 318 318 318
338 337 336 336 334 329 323 319 316 313 310 309 310 310 314 318 321 318 314 313 312 312

GFSNIL_sfc_thetae_120.txt.gz
Theta_e
344 343 343 343 343 344 344 346 348 349 351 352 353 351 353 351 351 351 350 349 350 345
344 343 342 343 344 343 344 344 347 348 351 351 352 353 352 350 350 351 349 348 350 349
344 345 345 344 343 342 344 344 345 347 350 350 351 353 352 352 352 350 348 350 349 350
343 345 346 345 345 344 344 341 342 345 347 347 349 352 352 351 351 349 350 350 350 348
343 345 344 343 344 345 343 342 341 341 343 346 347 351 349 350 353 349 348 348 349 349
343 344 344 343 344 344 343 341 339 340 343 346 346 349 348 349 350 350 351 349 349 349
344 345 345 345 344 344 344 343 340 342 346 345 346 349 349 349 350 350 351 351 351 351
346 347 347 346 345 345 344 343 343 342 346 346 344 341 341 344 347 346 347 349 350 348
345 346 346 346 346 346 346 344 343 346 345 340 334 326 331 335 342 345 346 347 346 343
345 344 343 345 345 345 345 343 344 341 336 331 330 321 324 327 336 340 344 346 342 335
341 341 342 343 342 342 344 339 339 336 333 329 327 319 319 324 332 337 337 340 335 331
341 340 340 340 339 341 341 341 338 335 330 328 325 319 320 329 332 326 327 328 329 331
340 339 339 338 338 337 338 336 332 327 326 324 324 316 317 327 329 324 321 321 320 319
338 339 339 337 335 332 329 324 322 319 318 315 315 318 316 321 326 323 319 317 315 315

GFSNIL_sfc_thetae_123.txt.gz
Theta_e
358 354 354 356 354 353 353 354 360 359 362 361 363 362 363 360 359 360 358 359 361 356
356 356 354 357 356 353 356 355 356 358 358 360 361 362 362 357 359 361 360 358 359 357
355 356 357 356 355 356 355 356 356 356 357 359 361 361 362 362 361 361 358 356 360 361
353 354 355 355 356 357 356 354 354 355 356 357 358 360 361 362 361 360 360 359 360 359
352 354 353 354 355 357 356 356 355 353 353 354 356 359 359 358 358 358 357 357 358 358
351 351 352 353 355 356 355 355 353 350 351 351 352 355 359 360 359 357 358 359 357 357
350 350 351 354 355 355 355 354 352 351 350 351 354 354 356 358 358 358 358 359 359 358
354 353 354 355 355 356 356 354 355 352 351 353 356 353 355 356 357 358 357 357 358 358
353 353 354 355 356 357 356 357 356 354 353 352 351 329 333 342 351 353 354 351 354 357
349 351 347 350 356 352 357 358 356 354 354 352 348 323 325 328 345 350 352 354 356 354
348 346 346 345 346 344 353 348 355 352 349 343 340 321 321 325 342 345 349 349 352 353
343 341 342 342 343 343 344 344 341 343 347 341 334 321 321 327 340 338 338 338 338 341
341 342 341 342 340 342 343 342 340 337 338 327 329 319 317 325 334 330 327 325 326 318
344 345 343 340 338 336 332 331 327 322 319 319 318 321 317 317 330 329 325 324 323 321